📊 Raw Sensor Data

Showing records 39551 to 39575 of 84,948 total

ID Distance (ft) Battery V Battery A Int Temp (°F) Int Humid (%) Ext Temp (°F) Solar V RSSI SNR Time Stamp
45410 15.2 3.91 5 52 41 59 4.50 -69 8 07/05/2025 06:45 AM
45409 15.2 3.89 0 50 42 55 4.50 -68 9 07/05/2025 06:30 AM
45408 15.1 3.87 0 48 43 53 4.50 -68 8 07/05/2025 06:15 AM
45407 15.1 3.82 -10 48 43 50 4.50 -68 8 07/05/2025 06:00 AM
45406 15.1 3.66 -6 47 43 50 1.80 -68 9 07/05/2025 05:45 AM
45405 15.1 3.84 -5 48 43 50 0.70 -68 8 07/05/2025 05:30 AM
45404 15.1 3.67 -5 48 43 50 0.00 -68 9 07/05/2025 05:15 AM
45403 15.1 3.84 -5 47 43 49 0.00 -68 8 07/05/2025 05:00 AM
45402 15.1 3.66 -5 47 43 49 0.00 -69 8 07/05/2025 04:45 AM
45401 15.1 3.84 -5 48 43 49 0.00 -69 8 07/05/2025 04:30 AM
45400 15.1 3.65 -5 49 43 50 0.00 -68 9 07/05/2025 04:15 AM
45399 15.1 3.65 -5 49 43 51 0.10 -68 9 07/05/2025 04:00 AM
45398 15.1 3.65 -5 48 44 51 0.00 -68 8 07/05/2025 03:45 AM
45397 15.1 3.65 -5 48 44 50 0.00 -68 9 07/05/2025 03:30 AM
45396 15.1 3.65 -5 49 44 50 0.00 -68 9 07/05/2025 03:15 AM
45395 15.1 3.65 -5 50 44 51 0.00 -69 9 07/05/2025 03:00 AM
45394 15.1 3.85 -5 51 44 52 0.00 -68 8 07/05/2025 02:45 AM
45393 15.1 3.84 -5 51 43 52 0.00 -69 8 07/05/2025 02:30 AM
45392 15.1 3.66 -5 52 43 52 0.00 -68 8 07/05/2025 02:15 AM
45391 15.0 3.65 -5 52 44 54 0.00 -68 8 07/05/2025 02:00 AM
45390 15.1 3.66 -5 53 43 54 0.00 -68 9 07/05/2025 01:45 AM
45389 15.0 3.85 -5 53 44 54 0.10 -69 9 07/05/2025 01:30 AM
45388 15.0 3.85 -5 52 44 54 0.00 -68 9 07/05/2025 01:15 AM
45387 15.0 3.65 -5 52 44 54 0.00 -68 8 07/05/2025 01:00 AM
45386 15.0 3.66 -5 53 44 54 0.00 -68 8 07/05/2025 12:45 AM